Regional Weather Roundup
Issued by NWS State College, PA

Home | Current Version | Previous Version | Text Only | Print | Product List | Glossary On
Versions: 1 2 3 4 5 6 7 8 9 10 11 12 13 14 15 16 17 18 19 20 21 22 23 24 25 26 27 28 29 30 31 32 33 34 35 36 37 38 39 40 41 42 43 44 45 46 47 48 49 50
000
ASUS41 KCTP 050210
RWRCTP

REGIONAL WEATHER ROUNDUP
NATIONAL WEATHER SERVICE STATE COLLEGE PA
900 PM EST SUN DEC 04 2016

Note: "fair" indicates few or no clouds below 12,000 feet with no
significant weather and/or obstructions to visibility.

* = STATION THAT DOES NOT REPORT PRECIPITATION /E.G. RAIN...SNOW...ETC/
    THUNDER OR FOG.

PAZ002>004-007>009-013>016-020>023-029>032-050300-
WESTERN PENNSYLVANIA

CITY           SKY/WX    TMP DP  RH WIND       PRES   REMARKS
ERIE           CLOUDY    39  28  64 S8G17     29.89F
MEADVILLE      CLOUDY    36  27  69 VRB6      29.86F
FRANKLIN*        N/A     36  25  64 SE14      29.89F
NEW CASTLE     LGT RAIN  38  30  73 SE10      29.88F
BEAVER COUNTY  NOT AVBL
BUTLER*        CLOUDY    37  27  65 E7        29.93F
PITTSBURGH INT CLOUDY    40  31  70 E8        29.88F
PITTSBURGH     LGT RAIN  38  28  67 E8        29.89F
INDIANA*       CLOUDY    37  28  70 SE10      29.95F
LATROBE        MOCLDY    39  28  65 SW10      29.94F
WASHINGTON CO* CLOUDY    39  27  60 E3        29.88F
$$

PAZ004>006-010>012-017>019-024>028-033>037-041-042-045-046-049>053-050300-
CENTRAL PENNSYLVANIA

CITY           SKY/WX    TMP DP  RH WIND       PRES   REMARKS
BRADFORD       CLOUDY    33  26  75 SE15G22   29.90F
DUBOIS         CLOUDY    35  26  69 SE16G24   29.91F
CLEARFIELD     CLOUDY    36  28  73 SE7       29.98F
JOHNSTOWN      CLOUDY    33  27  78 SE16G24   29.91F
ALTOONA        CLOUDY    38  27  64 S13G22    30.00F
STATE COLLEGE  MOCLDY    37  27  65 SE6       30.03F
WILLIAMSPORT   MOCLDY    40  25  55 E13       30.06F
SELINSGROVE    CLOUDY    37  34  89 E3        30.09F
FT INDIANTOWN  MOCLDY    38  29  70 CALM      30.11S
CAPITAL CITY   CLOUDY    42  28  57 SE7       30.11F
HARRISBURG     CLOUDY    41  33  73 SE6       30.11F
YORK           CLOUDY    39  32  76 CALM      30.12F
$$

PAZ038>040-043-044-047-048-054-055-060>062-067>071-050300-
EASTERN PENNSYLVANIA

CITY           SKY/WX    TMP DP  RH WIND       PRES   REMARKS
SCRANTON       MOCLDY    38  23  55 SE5       30.09F
MOUNT POCONO   CLOUDY    31  21  66 SE6       30.09S
ALLENTOWN      CLOUDY    40  26  57 NE5       30.13F
QUAKERTOWN*    CLOUDY    37  28  70 CALM      30.14F
READING        MOCLDY    41  27  57 CALM      30.13F
LANCASTER      CLOUDY    40  32  73 S3        30.13F
COATESVILLE    CLOUDY    39  30  70 CALM      30.15R
POTTSTOWN      MOCLDY    38  29  70 CALM      30.14F
BLUE BELL      MOCLDY    36  32  87 CALM      30.13F
DOYLESTOWN     CLOUDY    40  29  64 CALM      30.14F
WILLOW GROVE   NOT AVBL
NORTH PHILA    CLOUDY    42  28  57 SE5       30.17F
PHILADELPHIA   CLOUDY    42  31  64 SE3       30.16F
$$



USA.gov is the U.S. government's official web portal to all federal, state and local government web resources and services.